Wind_Speed
41 41 42 42 43 43 43 44 44 44 44 44 44 43 43 43 43 42 42 42 41 41 41 40 40 41 41 42 42 43 43 44 45 45 46 46 46 47 47 46 46 47 47
41 41 41 41 42 42 42 43 43 43 43 43 43 43 43 43 43 42 41 41 41 41 41 41 41 41 41 41 42 42 43 43 44 45 45 46 47 47 47 47 48 47 48
41 41 41 41 41 41 41 41 41 42 42 42 43 43 43 43 43 42 42 41 41 41 41 41 42 41 40 40 40 41 42 42 43 44 44 44 45 46 46 46 47 47 48
40 40 40 40 41 41 41 41 41 42 42 42 42 42 42 42 42 42 42 42 41 41 40 40 40 40 41 41 41 41 41 42 42 43 44 45 45 46 46 47 47 47 47
38 39 39 40 41 41 41 42 42 42 42 42 42 42 42 42 42 42 42 42 41 41 41 40 40 40 41 42 42 42 42 42 42 43 44 45 46 46 47 47 47 47 47
37 38 39 39 39 40 39 40 41 42 42 41 41 42 42 42 42 42 42 42 41 41 41 41 40 40 41 41 42 42 42 42 43 43 44 45 45 46 46 46 47 47 47
36 37 38 38 39 39 38 38 39 40 40 41 41 41 42 42 43 42 42 42 42 41 41 41 41 40 40 40 41 41 41 42 43 44 43 43 43 44 45 46 46 47 47
33 34 36 37 38 38 38 38 38 38 39 40 40 40 40 41 41 41 41 40 40 40 40 40 40 40 40 41 41 41 41 41 42 42 43 43 42 42 43 43 44 44 45
31 32 34 34 35 36 37 37 37 37 37 38 38 38 38 38 39 39 40 39 40 40 40 40 41 41 41 41 41 41 41 41 41 41 41 41 42 43 43 44 44 44 44
31 31 32 33 33 35 36 36 36 37 37 37 38 37 37 37 38 38 39 40 40 40 40 40 40 40 40 40 41 41 41 41 41 41 41 41 41 42 42 43 43 43 44
30 30 31 31 32 32 33 34 35 36 36 36 36 37 36 36 37 37 38 39 40 40 40 40 40 40 40 40 40 41 40 41 41 41 41 41 41 41 42 42 42 42 42
29 29 30 30 30 31 32 33 34 35 35 34 34 35 35 35 36 36 37 37 38 39 39 40 40 40 40 40 41 41 41 41 42 41 41 42 42 42 42 42 41 41 41
28 28 28 29 29 30 30 31 31 32 33 33 33 33 33 34 34 35 36 36 36 37 38 39 39 40 40 40 40 40 41 42 42 42 42 42 42 42 41 41 40 40 39
28 28 28 28 29 29 30 30 30 31 32 32 32 32 33 33 33 34 35 35 35 35 36 38 38 38 39 39 39 40 41 42 42 42 41 41 42 41 41 40 40 39 39
28 28 28 28 28 29 29 29 29 29 30 31 32 32 32 32 32 33 33 33 34 34 35 36 37 37 37 37 38 39 39 40 40 40 40 40 41 41 41 40 40 39 40
27 27 27 27 27 28 29 29 29 29 29 30 31 32 33 33 33 33 33 33 34 34 35 36 36 36 37 37 37 37 37 37 38 38 38 39 39 39 39 39 40 40 41
27 27 27 27 27 27 28 28 29 30 30 31 31 31 32 33 33 34 34 34 34 34 35 35 36 36 36 36 36 36 37 37 37 37 37 38 38 39 39 39 40 40 41
27 27 28 28 28 28 28 29 29 30 30 31 31 32 32 33 33 34 34 34 34 34 34 35 35 35 36 36 36 36 37 37 37 37 38 38 38 39 39 39 40 41 41
27 28 29 29 29 29 30 30 30 30 31 31 32 32 33 33 34 34 35 35 34 34 34 35 35 35 36 37 37 37 37 38 38 38 38 38 38 38 39 39 40 41 41
27 28 29 30 31 31 31 31 31 31 31 31 32 32 33 33 33 34 34 34 34 35 35 35 35 35 36 37 37 38 38 38 38 38 38 38 38 39 39 39 40 41 41
28 29 29 30 31 31 31 31 31 31 31 31 32 32 33 33 33 34 34 34 35 35 35 35 36 36 37 37 37 38 38 38 38 38 38 39 39 39 40 40 40 40 40
29 28 29 29 30 30 31 31 31 31 31 31 32 32 33 33 33 34 34 34 35 35 35 36 36 37 36 36 36 37 37 38 38 39 39 39 39 39 39 39 39 39 38
29 29 29 29 29 30 30 31 31 31 31 31 31 32 32 32 33 33 33 34 34 34 34 35 35 35 35 36 36 36 36 37 37 37 37 38 38 38 38 37 37 36 36
28 29 29 29 29 30 30 30 30 31 31 31 31 31 31 31 32 32 32 32 33 33 34 34 34 35 35 35 35 35 35 35 36 36 36 37 37 36 36 36 35 35 35
27 28 29 29 29 29 29 29 29 29 30 30 31 31 31 31 31 31 31 32 32 33 33 34 34 34 34 34 34 34 34 34 34 35 35 35 35 35 35 34 34 34 34
26 26 27 27 27 27 28 28 28 29 29 29 30 30 31 31 31 31 31 31 32 32 32 33 33 34 34 34 34 34 34 33 34 34 34 34 34 34 34 33 33 32 32
Wind_Direction
250 249 249 249 249 250 251 252 253 253 253 253 254 254 255 256 257 258 259 259 260 261 262 262 263 264 264 265 265 265 266 266 265 265 266 267 269 269 268 267 267 266 266
250 249 248 249 249 249 251 252 252 252 253 253 253 254 254 256 257 257 258 259 260 260 261 262 263 264 265 265 265 266 267 266 266 266 266 268 269 270 269 267 267 267 267
249 249 249 249 249 250 251 251 251 252 252 251 252 253 254 256 256 256 257 258 259 259 260 262 263 264 265 265 265 267 268 268 268 268 268 268 268 269 268 268 269 268 267
249 250 250 250 250 251 251 251 252 252 252 251 251 253 254 256 256 256 257 257 258 260 261 262 263 264 264 264 265 268 269 270 270 270 269 269 268 268 269 269 269 268 268
249 249 250 250 250 250 251 251 252 252 252 252 252 253 255 256 256 256 256 257 258 259 261 261 263 264 264 266 267 269 270 271 271 271 271 270 269 269 269 269 268 268 268
249 249 249 250 251 251 251 251 251 251 251 252 253 254 255 257 257 256 256 257 258 259 260 261 262 264 265 267 268 269 270 271 272 272 272 272 271 270 269 269 269 269 268
248 248 248 249 250 251 252 252 252 251 251 252 254 255 256 257 257 257 257 257 258 259 260 261 262 263 265 268 269 270 271 272 273 274 273 273 273 272 271 271 270 271 270
248 248 248 247 248 249 251 251 251 252 251 252 254 255 256 257 257 257 258 258 258 259 260 261 263 265 267 269 269 270 271 272 273 273 274 274 273 272 273 272 272 272 272
248 248 247 246 247 249 250 250 250 251 252 253 254 255 256 256 256 256 256 257 258 259 260 262 264 266 267 269 269 270 271 272 272 273 275 274 273 273 273 273 273 273 273
248 248 247 246 247 248 249 249 250 252 254 254 254 255 255 255 257 258 258 258 259 260 261 263 264 265 266 267 269 270 271 272 273 274 274 275 274 274 273 274 274 273 273
249 249 248 247 246 247 248 250 251 252 253 254 254 254 255 256 258 259 260 260 261 261 261 263 264 264 266 267 269 270 271 272 273 274 274 275 275 275 275 275 275 275 275
250 250 249 248 247 248 249 250 251 252 252 253 253 255 257 258 259 261 262 263 263 263 263 263 264 266 267 269 270 271 272 273 273 274 275 275 275 276 276 277 276 276 276
251 251 250 249 249 250 251 251 251 251 252 253 253 255 257 260 261 262 263 264 265 265 265 265 266 267 270 271 272 272 274 275 275 275 275 276 276 276 276 276 276 276 276
252 251 251 250 250 251 252 252 252 252 252 253 255 257 259 260 262 264 265 265 265 266 266 267 268 270 271 272 272 273 274 275 275 275 276 275 275 275 275 275 275 276 277
252 252 251 252 252 252 252 252 253 253 253 254 256 258 260 261 262 263 264 265 266 267 268 269 270 270 271 272 272 273 274 274 275 275 275 275 275 274 274 274 275 275 276
253 252 252 253 253 253 253 253 253 254 255 256 258 260 262 263 264 264 266 267 268 269 269 270 270 270 270 271 271 273 274 274 275 275 275 275 275 274 274 274 274 275 275
254 253 254 254 254 254 253 253 253 254 256 258 259 261 262 264 265 267 267 268 268 269 270 270 270 270 270 270 271 273 274 275 276 276 276 276 276 275 274 274 275 275 276
255 255 254 255 256 256 255 255 256 256 258 260 261 262 263 264 266 267 267 268 269 269 270 270 270 270 270 270 271 273 274 275 276 277 277 277 277 277 276 276 276 276 277
257 256 256 256 257 258 258 258 259 259 260 261 261 262 263 265 267 267 268 268 268 268 269 270 270 271 271 271 271 272 273 275 277 277 277 277 278 278 278 279 279 279 279
259 259 259 258 258 259 259 259 260 260 261 261 262 263 264 265 267 267 268 268 268 269 269 270 272 273 273 274 274 274 274 275 276 277 277 278 279 279 280 281 280 280 280
261 261 260 259 259 259 259 260 261 261 261 262 263 264 264 266 266 267 267 267 268 269 270 270 272 274 275 276 276 276 276 275 276 276 277 278 280 280 282 282 281 281 281
264 262 261 260 260 260 260 261 261 261 262 262 263 264 265 266 267 267 268 268 269 269 270 272 274 275 276 276 276 277 277 277 276 277 278 279 280 281 282 282 282 281 280
264 263 262 262 261 261 261 261 262 262 262 262 263 265 266 267 267 268 268 268 269 269 271 272 274 275 276 276 277 277 277 277 278 278 278 279 280 281 282 282 282 281 280
265 264 263 263 263 262 262 262 262 263 262 262 264 265 267 268 269 269 270 270 271 271 272 273 274 276 276 277 277 278 279 279 278 278 279 280 280 281 282 283 281 280 280
265 265 264 263 263 263 263 263 263 264 264 264 265 266 268 269 270 270 270 271 272 272 274 275 275 276 276 277 278 279 279 279 280 280 280 281 281 282 282 282 280 279 279
266 265 264 263 262 262 263 263 264 265 264 265 267 267 268 269 270 270 271 272 273 274 275 276 276 276 276 277 278 278 279 279 281 281 282 282 282 282 282 281 280 279 278
Height
5617 5620 5622 5625 5628 5631 5634 5636 5639 5642 5645 5647 5650 5652 5655 5657 5660 5662 5665 5667 5668 5670 5671 5673 5674 5675 5676 5677 5678 5679 5680 5681 5683 5684 5684 5684 5684 5684 5684 5684 5685 5685 5685
5605 5608 5611 5614 5617 5620 5623 5625 5628 5630 5633 5636 5638 5641 5644 5646 5649 5651 5654 5655 5657 5659 5660 5662 5663 5664 5665 5666 5667 5668 5668 5669 5670 5671 5672 5672 5672 5671 5671 5671 5672 5671 5672
5594 5597 5600 5603 5606 5609 5612 5614 5617 5619 5622 5625 5627 5630 5633 5635 5638 5640 5642 5644 5646 5648 5649 5651 5652 5653 5654 5655 5655 5656 5657 5657 5657 5658 5659 5659 5659 5659 5658 5658 5658 5659 5659
5584 5587 5590 5593 5595 5598 5601 5604 5606 5609 5611 5614 5616 5619 5622 5624 5626 5629 5631 5633 5635 5637 5638 5639 5640 5641 5643 5643 5644 5645 5645 5645 5645 5646 5646 5647 5647 5646 5645 5646 5646 5646 5646
5573 5576 5578 5581 5584 5587 5590 5593 5595 5598 5601 5603 5606 5608 5611 5613 5615 5617 5620 5622 5624 5626 5627 5628 5629 5630 5631 5632 5633 5633 5633 5633 5633 5633 5634 5634 5633 5633 5633 5633 5633 5633 5633
5562 5565 5567 5570 5573 5576 5579 5582 5584 5587 5590 5592 5595 5597 5599 5601 5604 5606 5608 5610 5612 5614 5616 5617 5618 5619 5619 5620 5620 5621 5621 5621 5621 5621 5621 5621 5620 5620 5619 5619 5619 5619 5620
5551 5554 5557 5559 5562 5565 5568 5571 5573 5576 5579 5581 5584 5586 5588 5590 5592 5594 5596 5599 5601 5603 5604 5605 5606 5607 5608 5608 5608 5609 5609 5608 5609 5608 5608 5608 5608 5607 5606 5606 5606 5605 5606
5541 5543 5546 5549 5552 5555 5557 5560 5563 5565 5568 5571 5573 5575 5577 5579 5580 5583 5585 5587 5589 5591 5592 5593 5594 5595 5595 5596 5596 5597 5597 5597 5596 5596 5596 5596 5594 5594 5593 5593 5592 5592 5592
5531 5533 5536 5538 5541 5544 5547 5550 5552 5555 5557 5560 5562 5564 5566 5568 5569 5571 5573 5575 5577 5579 5580 5581 5582 5583 5584 5584 5584 5585 5585 5585 5584 5584 5584 5583 5582 5581 5580 5580 5580 5579 5579
5522 5524 5526 5529 5531 5534 5537 5539 5541 5544 5547 5549 5551 5553 5555 5557 5559 5560 5562 5564 5566 5568 5569 5570 5570 5571 5571 5571 5572 5572 5573 5573 5572 5572 5572 5571 5570 5569 5568 5567 5567 5566 5566
5513 5515 5517 5519 5521 5524 5527 5529 5531 5534 5536 5539 5541 5543 5544 5546 5548 5549 5550 5552 5553 5555 5557 5558 5558 5559 5559 5560 5560 5560 5561 5561 5560 5560 5560 5559 5558 5557 5556 5555 5554 5553 5553
5505 5507 5508 5510 5512 5515 5517 5519 5521 5524 5526 5528 5530 5532 5534 5535 5537 5538 5539 5540 5541 5543 5544 5545 5546 5547 5547 5547 5547 5548 5548 5548 5548 5548 5547 5547 5546 5545 5543 5542 5541 5541 5540
5496 5498 5500 5502 5504 5506 5508 5510 5512 5514 5516 5518 5520 5522 5524 5525 5526 5527 5528 5529 5530 5531 5532 5533 5534 5535 5535 5535 5535 5535 5535 5535 5535 5535 5535 5534 5533 5532 5531 5530 5529 5529 5528
5488 5490 5492 5493 5495 5497 5499 5501 5502 5504 5506 5508 5510 5512 5513 5515 5515 5516 5517 5518 5519 5519 5520 5521 5522 5522 5523 5523 5523 5523 5523 5522 5522 5522 5521 5521 5520 5519 5519 5518 5517 5517 5516
5480 5481 5483 5485 5487 5489 5490 5492 5493 5495 5496 5499 5500 5502 5503 5505 5505 5506 5506 5507 5508 5509 5509 5510 5510 5511 5511 5511 5511 5511 5510 5510 5509 5509 5509 5508 5508 5507 5507 5506 5505 5505 5504
5472 5473 5475 5476 5478 5480 5482 5483 5484 5486 5488 5489 5490 5492 5493 5494 5495 5495 5496 5497 5497 5497 5498 5498 5499 5499 5499 5500 5499 5499 5499 5498 5498 5497 5496 5495 5495 5494 5494 5493 5493 5492 5492
5464 5465 5467 5468 5470 5471 5473 5474 5476 5478 5478 5480 5481 5481 5482 5483 5484 5485 5486 5486 5486 5487 5487 5487 5488 5488 5488 5488 5488 5488 5487 5487 5486 5485 5484 5483 5483 5482 5481 5481 5480 5479 5479
5455 5457 5458 5460 5461 5463 5464 5465 5467 5468 5469 5470 5471 5472 5472 5473 5474 5474 5475 5476 5476 5476 5476 5476 5476 5476 5476 5476 5476 5476 5475 5475 5474 5473 5473 5472 5471 5470 5469 5468 5467 5466 5465
5447 5448 5450 5451 5452 5454 5455 5456 5458 5459 5460 5460 5461 5462 5462 5463 5463 5464 5464 5465 5465 5465 5465 5465 5465 5465 5465 5465 5464 5464 5464 5463 5462 5461 5461 5460 5459 5458 5457 5456 5454 5453 5452
5439 5440 5441 5442 5443 5444 5446 5447 5448 5449 5450 5450 5451 5452 5452 5453 5453 5453 5453 5453 5454 5454 5454 5454 5454 5454 5453 5453 5453 5452 5452 5451 5450 5449 5449 5448 5447 5445 5444 5443 5442 5440 5439
5430 5431 5431 5432 5433 5435 5436 5437 5438 5439 5440 5440 5441 5441 5442 5442 5442 5442 5442 5443 5443 5443 5443 5443 5443 5443 5442 5441 5441 5440 5439 5439 5438 5437 5436 5436 5434 5433 5432 5430 5429 5428 5426
5421 5421 5422 5423 5424 5425 5426 5427 5428 5429 5430 5430 5431 5431 5431 5432 5432 5432 5432 5432 5432 5432 5432 5432 5432 5431 5430 5430 5429 5428 5427 5427 5426 5425 5424 5423 5422 5421 5420 5418 5416 5415 5414
5411 5412 5413 5413 5414 5415 5416 5417 5418 5418 5419 5420 5421 5421 5421 5421 5421 5421 5421 5421 5420 5420 5420 5420 5420 5419 5419 5418 5417 5416 5416 5415 5414 5413 5412 5411 5410 5409 5407 5406 5404 5403 5402
5401 5402 5403 5404 5404 5405 5406 5407 5407 5408 5409 5410 5410 5411 5411 5411 5411 5410 5410 5410 5410 5410 5409 5409 5409 5408 5408 5407 5406 5405 5404 5403 5402 5401 5400 5399 5398 5397 5396 5394 5393 5392 5391
5392 5392 5393 5394 5394 5395 5396 5397 5397 5398 5399 5399 5400 5400 5401 5400 5400 5400 5400 5400 5399 5399 5399 5398 5398 5397 5396 5396 5395 5394 5393 5392 5391 5390 5389 5388 5387 5385 5384 5383 5382 5381 5380
5382 5383 5383 5384 5384 5385 5386 5387 5387 5388 5389 5389 5390 5390 5390 5390 5390 5390 5390 5389 5389 5389 5388 5387 5387 5386 5386 5385 5384 5383 5382 5381 5380 5379 5378 5377 5375 5374 5373 5372 5371 5371 5370